Location: Ash Swamp
(41.5170°N, 74.6157°W)
Time: 02:37:53
(UTC+00:00)

SL-16 R/B - Pass Details

Date: 14 July 2020
Orbit: 985 x 1007 km, 99.5° (Epoch: 14 August)

Event Time Altitude Azimuth Distance (km) Brightness Sun altitude
Exits shadow 05:27:12 14° 111° (ESE) 2,515 4.5 -26.7°
Maximum altitude 05:31:23 27° 62° (ENE) 1,833 4.2 -26.6°
Drops below altitude 10° 05:36:28 10° 8° (N) 2,790 5.9 -26.4°
Sets 05:39:19 0° 356° (N) 3,745 6.8 -26.4°
